User: anonymous   Login
Location: Lac de la Montagne noire
(46.1952°N, 74.2701°W)
Time: 00:07:10
(UTC-04:00)
Language:

Hubble Space Telescope - Orbit

View from above orbital plane
View from above orbital plane
View from above satellite
View from above satellite

Ground track
Ground track

The orbit data is extracted from the following two-line orbital elements,

1 20580U 90037B   19146.08587991  .00000358  00000-0  10851-4 0  9997
2 20580  28.4706   8.0299 0002594 228.4182 267.2953 15.09227849397324
Epoch (UTC): 26 May 2019 02:03:40
Eccentricity: 0.0002594
inclination: 28.4706°
perigee height: 537 km
apogee height: 540 km
right ascension of ascending node: 8.0299°
argument of perigee: 228.4182°
revolutions per day: 15.09227849
mean anomaly at epoch: 267.2953°
orbit number at epoch: 39732

The dashed part of the orbit path shows where the satellite is in the earth's shadow,  

DLR